Broken Bow, NE

10:26 AM CDT on July 28, 2017 (GMT -0500)
Broken Bow Municipal

Weather History for KBBW - February, 2014

Change the Weather History Date:

Sunday, February 9, 2014

  Actual Average Record
Temperature  
Mean Temperature 11 °F 26 °F  
Max Temperature 15 °F 39 °F 69 °F (1954)
Min Temperature 7 °F 14 °F -25 °F (1975)
Degree Days  
Heating Degree Days 54 39  
Month to date heating degree days 526 351  
Cooling Degree Days 0 0  
Month to date cooling degree days 0 0  
Year to date cooling degree days 0 0  
Moisture  
Dew Point 4 °F    
Average Humidity 77    
Maximum Humidity 88    
Minimum Humidity 66    
Precipitation  
Precipitation 0.03 in 0.02 in 0.90 in (1942)
Sea Level Pressure  
Sea Level Pressure 30.33 in    
Wind  
Wind Speed 8 mph (North)    
Max Wind Speed 18 mph    
Max Gust Speed 23 mph    
Visibility 5 miles    
Events Snow    
T = Trace of Precipitation, MM = Missing Value Source: NWS Daily Summary

Daily Weather History Graph

Daily Weather History Graph

Search for Another Location

Airport or City:

Trip Planner

Search our weather history database for the weather conditions in past years. The results will help you decide how hot, cold, wet, or windy it might be!

Date:

Astronomy

Feb. 09, 2014 Rise Set
Actual Time 7:41 AM CST 6:04 PM CST
Civil Twilight 7:12 AM CST 6:33 PM CST
Nautical Twilight 6:39 AM CST 7:06 PM CST
Astronomical Twilight 6:07 AM CST 7:38 PM CST
Moon 1:45 PM CST (2/9) 3:48 AM CST (2/9)
Length of Visible Light 11h 21m
Length of Day
10h 23m
Waxing Gibbous, 77% of the Moon is Illuminated
Feb 9
Waxing Gibbous
Feb 14
Full
Feb 22
Last Quarter
Mar 1
New
Mar 8
First Quarter

Hourly Weather History & Observations

Time (CST) Temp. Windchill Dew Point Humidity Pressure Visibility Wind Dir Wind Speed Gust Speed Precip Events Conditions
12:18 AM 15.8 °F 2.1 °F 10.4 °F 79% 30.18 in 3.0 mi North 12.7 mph - 0.00 in Snow Light Snow
12:53 AM 14.0 °F -3.0 °F 10.0 °F 84% 30.31 in 5.0 mi North 18.4 mph 23.0 mph 0.00 in   Overcast
1:53 AM 12.0 °F -1.3 °F 7.0 °F 80% 30.30 in 10.0 mi North 10.4 mph - N/A   Overcast
2:06 AM 12.2 °F 0.7 °F 8.6 °F 85% 30.17 in 10.0 mi North 8.1 mph - N/A   Overcast
2:39 AM 12.2 °F -1.0 °F 6.8 °F 79% 30.20 in 10.0 mi North 10.4 mph - N/A   Overcast
2:53 AM 12.0 °F -3.4 °F 6.1 °F 77% 30.32 in 10.0 mi North 13.8 mph - N/A   Overcast
3:53 AM 10.9 °F -2.6 °F 3.0 °F 70% 30.30 in 10.0 mi North 10.4 mph - N/A   Overcast
4:53 AM 10.0 °F -2.9 °F 1.9 °F 70% 30.31 in 10.0 mi North 9.2 mph - N/A   Overcast
5:53 AM 10.0 °F -4.5 °F 1.9 °F 70% 30.31 in 10.0 mi North 11.5 mph - N/A   Overcast
6:53 AM 9.0 °F -7.9 °F 1.9 °F 73% 30.35 in 6.0 mi North 15.0 mph - 0.00 in Snow Light Snow
7:15 AM 8.6 °F -5.5 °F 3.2 °F 79% 30.22 in 2.5 mi North 10.4 mph - 0.00 in Snow Light Snow
7:29 AM 8.6 °F -7.0 °F 3.2 °F 79% 30.22 in 1.8 mi North 12.7 mph - 0.00 in Snow Light Snow
7:53 AM 8.1 °F -7.0 °F 3.9 °F 83% 30.37 in 1.2 mi North 11.5 mph - 0.00 in Snow Light Snow
8:03 AM 8.6 °F -3.7 °F 3.2 °F 79% 30.23 in 1.2 mi North 8.1 mph - 0.00 in Snow Light Snow
8:35 AM 6.8 °F -4.8 °F 3.2 °F 85% 30.24 in 1.2 mi North 6.9 mph - 0.01 in Snow Light Snow
8:53 AM 7.0 °F -7.5 °F 3.0 °F 84% 30.39 in 1.2 mi North 10.4 mph - 0.01 in Snow Light Snow
9:08 AM 6.8 °F -8.6 °F 3.2 °F 85% 30.26 in 1.2 mi North 11.5 mph - 0.00 in Snow Light Snow
9:20 AM 6.8 °F -6.9 °F 3.2 °F 85% 30.26 in 1.0 mi North 9.2 mph - 0.00 in Snow Light Snow
9:51 AM 6.8 °F -6.9 °F 3.2 °F 85% 30.24 in 1.0 mi North 9.2 mph - 0.00 in Snow Light Snow
9:53 AM 7.0 °F -5.7 °F 3.0 °F 84% 30.39 in 1.0 mi NNE 8.1 mph - 0.00 in Snow Light Snow
10:09 AM 6.8 °F -5.9 °F 3.2 °F 85% 30.27 in 1.2 mi North 8.1 mph - 0.01 in Snow Light Snow
10:53 AM 7.0 °F -6.6 °F 1.9 °F 80% 30.43 in 1.5 mi North 9.2 mph - 0.01 in Snow Light Snow
11:10 AM 6.8 °F -5.9 °F 3.2 °F 85% 30.28 in 0.8 mi North 8.1 mph - 0.00 in Snow Light Snow
11:23 AM 6.8 °F -6.9 °F 1.4 °F 79% 30.28 in 1.2 mi North 9.2 mph - 0.00 in Snow Light Snow
11:38 AM 6.8 °F -5.9 °F 1.4 °F 79% 30.27 in 1.0 mi NNE 8.1 mph - 0.00 in Snow Light Snow
11:53 AM 8.1 °F -3.2 °F 1.9 °F 76% 30.42 in 1.5 mi North 6.9 mph - 0.01 in Snow Light Snow
12:06 PM 8.6 °F -3.7 °F 3.2 °F 79% 30.27 in 2.0 mi North 8.1 mph - 0.00 in Snow Light Snow
12:25 PM 8.6 °F -2.6 °F 3.2 °F 79% 30.26 in 3.0 mi North 6.9 mph - 0.00 in Snow Light Snow
12:53 PM 9.0 °F -2.2 °F 3.0 °F 77% 30.42 in 2.5 mi North 6.9 mph - 0.00 in Snow Light Snow
1:10 PM 8.6 °F -4.7 °F 1.4 °F 73% 30.27 in 3.0 mi NNE 9.2 mph - 0.00 in Snow Light Snow
1:53 PM 9.0 °F -0.9 °F 3.0 °F 77% 30.40 in 5.0 mi North 5.8 mph - 0.00 in Snow Light Snow
2:53 PM 10.0 °F -1.9 °F 3.0 °F 73% 30.39 in 8.0 mi North 8.1 mph - 0.00 in Snow Light Snow
3:53 PM 10.0 °F -1.9 °F 3.0 °F 73% 30.40 in 10.0 mi North 8.1 mph - 0.00 in   Overcast
4:53 PM 10.0 °F -1.9 °F 3.0 °F 73% 30.42 in 10.0 mi North 8.1 mph - N/A   Overcast
5:53 PM 9.0 °F -2.2 °F 3.0 °F 77% 30.42 in 10.0 mi NNE 6.9 mph - N/A   Overcast
6:53 PM 9.0 °F 2.4 °F 3.0 °F 77% 30.45 in 10.0 mi NNE 3.5 mph - N/A   Overcast
7:53 PM 9.0 °F 2.4 °F 3.0 °F 77% 30.46 in 10.0 mi NNE 3.5 mph - N/A   Overcast
8:53 PM 9.0 °F 0.6 °F 3.0 °F 77% 30.48 in 10.0 mi NNE 4.6 mph - N/A   Overcast
9:53 PM 8.1 °F -2.0 °F 3.0 °F 80% 30.46 in 10.0 mi NE 5.8 mph - N/A   Overcast
10:53 PM 8.1 °F - 1.0 °F 73% 30.48 in 10.0 mi Calm Calm - N/A   Overcast
11:53 PM 8.1 °F - 1.9 °F 76% 30.48 in 10.0 mi Calm Calm - N/A   Overcast